Flag for Spain Weather past 2 weeks in Granada, Spain

Now
43 °F

Quite cool.


Feels Like: 43 °F
Forecast: 46 / 68 °F
Wind: 1 mph from Southwest

Location: Granada / Aeropuerto

Current Time: Feb 28, 2015 at 3:05:11 AM

Latest Report: Feb 28, 2015 at 2:00 AM


Visibility: 13 mi

Pressure: 30.28 "Hg

Humidity: 93%

Dew point: 41 °F

Location of GranadaLocation

Historic Weather in Granada — Graph

°F

Granada temperature yesterday

Maximum temperature yesterday: 64 °F (at 3:00 PM)
Minimum temperature yesterday: 40 °F (at 7:00 AM)
Average temperature yesterday: 52 °F

Past Weeks' High & Low Weather Summary

 TemperatureHumidityPressure
High67 °F (Feb 26, 4:00 PM)100% (Feb 13, 7:00 AM)30.54 "Hg (Feb 13, 7:00 AM)
Low29 °F (Feb 20, 7:00 AM)30% (Feb 25, 4:00 PM)29.84 "Hg (Feb 21, 4:00 PM)
Average46 °F76%30.21 "Hg
* Reported Feb 13 1:00 AM — Feb 28 1:00 AM, Granada, Weather by CustomWeather, © 2015

Note: Actual official high and low records may vary slightly from our data, if they occured in-between our weather recording intervals... More about our weather records

Advertising

Granada weather history for previous 24 hours

 ConditionsComfort  
Time TempWeatherWind HumidityBarometerVisibility
1:00 AM
Sat, Feb 28
44 °FQuite cool.1 mph88%30.29 "Hg14 mi
12:00 AM47 °FCool.7 mph85%30.29 "Hg19 mi
11:00 PM
Fri, Feb 27
46 °FCool.5 mph86%30.29 "Hg18 mi
9:00 PM51 °FCool.2 mph73%30.25 "Hg17 mi
8:00 PM52 °FCool.5 mph69%30.23 "Hg19 mi
7:00 PM54 °FScattered clouds.13 mph64%30.20 "Hg19 mi
6:00 PM57 °FRefreshingly cool.16 mph57%30.16 "Hg17 mi
5:00 PM61 °FRefreshingly cool.15 mph50%30.13 "Hg19 mi
4:00 PM63 °FPassing clouds.14 mph52%30.11 "Hg19 mi
3:00 PM64 °FMild.12 mph43%30.12 "Hg19 mi
2:00 PM63 °FScattered clouds.7 mph46%30.13 "Hg19 mi
1:00 PM62 °FPartly sunny.8 mph51%30.16 "Hg19 mi
12:00 PM59 °FCool.8 mph61%30.18 "Hg11 mi
11:00 AM54 °FCool.8 mph73%30.22 "Hg11 mi
10:00 AM48 °FPartly sunny.3 mph87%30.24 "Hg16 mi
9:00 AM43 °FFog.No wind93%30.25 "Hg6 mi
7:00 AM40 °FClear.No wind97%30.24 "Hg16 mi
6:00 AM40 °FFog.1 mph93%30.22 "Hg4 mi
5:00 AM43 °FQuite cool.2 mph96%30.22 "Hg6 mi
3:00 AM46 °FCool.7 mph90%30.22 "Hg12 mi
Weather by CustomWeather, © 2015

See weather overviewHow to use our weather pages